Location: Waco, TX
(31.5480°N, 97.1670°W)
Time: 06:28:50
(UTC-05:00)

ISS - Pass Details

Date: 30 September 2022
Orbit: 414 x 417 km, 51.6° (Epoch: 01 October)

Event Time Altitude Azimuth Distance (km) Brightness Sun altitude
Rises 22:06:37 0° 317° (NW) 2,356 0.9 -36.8°
Enters shadow 22:07:09 - 317° (NW) 2,138 0.6 -36.9°
Reaches altitude 10° 22:08:44 10° 320° (NW) 1,491 - -37.2°
Maximum altitude 22:12:04 71° 44° (NE) 442 - -37.8°
Drops below altitude 10° 22:15:23 10° 129° (SE) 1,483 - -38.5°
Sets 22:17:28 0° 132° (SE) 2,342 - -38.9°
